[[{"header":{"parameterUnit":"m.s-1","parameterCategory":1,"la1":30.2991,"la2":30.254,"lo1":-89.0895,"lo2":-89.0444,"dy":0.0017,"dx":0.0017,"nx":28,"ny":28,"refTime":"2025-04-09T03:00:00:Z","depth":0,"parameterNumber":2,"parameterNumberName":"U-component_of_WINDS"},"data":[0,0,0,0,0,0,0,0,0,0,0,0,0,0,0,0,0,0,0,0,0,0,0,0,0,0,0,0,0,0,0,0,0,0,0,0,0,0,0,0,0,0,0,0,0,0,0,0,0,0,0,0,0,0,0,0,0,0,-2.0448,-2.0448,0,-2.049,-2.049,-2.0491,-2.0452,-2.045,-2.0448,-2.0447,-2.0492,-2.0494,-2.0497,0,0,0,0,0,0,0,0,0,0,0,0,0,-2.0335,-2.0337,-2.0448,-2.0448,-2.0449,-2.049,-2.049,-2.0491,-2.0452,-2.045,-2.0448,-2.0446,-2.0491,-2.0494,-2.0497,0,0,0,0,0,0,0,0,0,0,0,0,0,-2.0381,-2.0338,-2.0448,-2.0434,-2.0433,-2.049,-2.049,-2.0491,-2.0452,-2.045,-2.0447,-2.0445,-2.049,-2.0494,-2.0497,-2.057,0,0,-2.051,-2.0511,0,0,0,0,0,0,0,0,-2.0379,-2.0385,-2.0436,-2.0435,-2.0434,-2.0463,-2.0467,-2.0517,-2.0453,-2.0445,-2.0447,-2.0444,-2.0484,-2.0488,-2.0502,-2.0572,-2.0574,-2.051,-2.0512,-2.0514,-2.0515,0,0,0,0,0,0,0,-2.0375,-2.0383,-2.0464,-2.0436,-2.0436,-2.0426,-2.043,-2.0476,-2.0477,-2.0446,-2.0443,-2.0448,-2.0483,-2.0498,-2.0502,-2.0574,-2.051,-2.0513,-2.0516,-2.0517,-2.0706,-2.0709,0,0,0,0,0,0,-2.0373,-2.0381,-2.0463,-2.0466,-2.04,-2.043,-2.0435,-2.0456,-2.0477,-2.0478,-2.045,-2.0446,-2.0492,-2.0498,-2.0504,-2.059,-2.0514,-2.0518,-2.052,-2.0704,-2.0707,-2.071,0,0,0,0,0,0,-2.0371,-2.0381,-2.0461,-2.0423,-2.0432,-2.0435,-2.0459,-2.0458,-2.0473,-2.048,-2.048,-2.0465,-2.049,-2.0498,-2.0553,-2.0591,-2.052,-2.0523,-2.0701,-2.0705,-2.0708,-2.0762,0,0,0,0,0,0,-2.0368,-2.0381,-2.0408,-2.0423,-2.0434,-2.051,-2.0461,-2.0461,-2.0479,-2.0475,-2.0494,-2.0495,-2.0489,-2.0548,-2.0557,-2.0595,-2.0526,-2.0697,-2.0702,-2.0707,-2.0757,-2.0768,-2.0777,0,0,0,0,0,-2.0364,-2.0422,-2.0409,-2.0419,-2.0468,-2.0512,-2.0519,-2.051,-2.0483,-2.051,-2.0515,-2.0494,-2.0585,-2.0554,-2.0564,-2.0604,-2.0695,-2.0701,-2.0707,-2.0753,-2.0766,-2.0776,0,0,0,0,0,0,-2.041,-2.0423,-2.041,-2.0474,-2.0492,-2.0506,-2.054,-2.0524,-2.0551,-2.0546,-2.0535,-2.0539,-2.0598,-2.0606,-2.0571,-2.0675,-2.0636,-2.0644,-2.0667,-2.0679,-2.0689,-2.0686,-2.053,0,0,0,0,0,-2.0428,-2.0462,-2.0472,-2.0527,-2.0537,-2.0537,-2.0556,-2.0548,-2.0567,-2.0575,-2.0584,-2.0603,-2.0636,-2.0658,-2.0689,-2.0758,-2.0762,-2.0791,-2.08,-2.0808,-2.0815,-2.0853,-2.0866,-2.0729,-2.0729,-2.0729,0,0,-2.0465,-2.0476,-2.0499,-2.0537,-2.055,-2.0587,-2.0544,-2.0584,-2.0611,-2.0581,-2.0634,-2.0641,-2.0662,-2.0725,-2.0753,-2.0734,-2.0854,-2.0816,-2.0822,-2.0825,-2.0861,-2.0874,-2.0885,-2.0733,-2.0732,-2.0732,0,0,-2.055,-2.0562,-2.061,-2.0624,-2.0645,-2.0644,-2.0656,-2.0672,-2.0675,-2.0728,-2.0706,-2.0738,-2.0795,-2.0811,-2.0827,-2.0919,-2.0901,-2.0929,-2.098,-2.1017,-2.1027,-2.1037,-2.107,-2.1082,-2.0937,-2.0937,-2.0937,0,-2.0594,-2.0647,-2.0637,-2.0678,-2.0696,-2.067,-2.0719,-2.0733,-2.0763,-2.0776,-2.0754,-2.0825,-2.0837,-2.0904,-2.0926,-2.0939,-2.0953,-2.0927,-2.1027,-2.1036,-2.1045,-2.1076,-2.1089,-2.094,-2.094,-2.0939,-2.0939,0,-2.0699,-2.0737,-2.0773,-2.0802,-2.0824,-2.0869,-2.0866,-2.0889,-2.088,-2.0882,-2.0936,-2.095,-2.0983,-2.0998,-2.0989,-2.1064,-2.1051,-2.1028,-2.0988,-2.1061,-2.1091,-2.1103,-2.0945,-2.0944,-2.0943,-2.0942,0,0,-2.0815,-2.0838,-2.0851,-2.0864,-2.0885,-2.0914,-2.0958,-2.099,-2.1011,-2.1033,-2.107,-2.1118,-2.1097,-2.1115,-2.1108,-2.114,-2.1212,-2.1113,-2.1113,-2.1131,-2.1295,-2.1313,-2.1327,-2.12,-2.1203,-2.1205,-2.1294,0,-2.0902,-2.0978,-2.097,-2.1042,-2.1077,-2.1053,-2.1091,-2.1109,-2.1112,-2.1142,-2.1146,-2.1181,-2.115,-2.1161,-2.1192,-2.1197,-2.1245,-2.119,-2.1235,-2.1237,-2.1231,-2.1342,-2.1361,-2.1444,-2.1305,-2.1307,-2.1309,0,-2.1012,-2.1038,-2.1114,-2.113,-2.1144,-2.1178,-2.1207,-2.1236,-2.1256,-2.1256,-2.1276,-2.1263,-2.1308,-2.1267,-2.1329,-2.1292,-2.131,-2.1316,-2.1319,-2.1323,-2.1277,-2.1349,-2.147,-2.1483,-2.1326,-2.1325,-2.1324,0,-2.109,-2.1143,-2.1195,-2.1207,-2.1227,-2.1252,-2.1261,-2.1278,-2.1298,-2.1323,-2.1336,-2.1367,-2.1384,-2.1408,-2.1404,-2.1374,-2.1467,-2.1426,-2.1469,-2.1469,-2.149,-2.1488,-2.1615,-2.1501,-2.1501,-2.1501,-2.15,0,-2.1187,-2.1235,-2.123,-2.1262,-2.1315,-2.1306,-2.1358,-2.1365,-2.138,-2.1413,-2.1395,-2.1427,-2.1419,-2.1451,-2.1448,-2.15,-2.1508,-2.151,-2.1508,-2.1512,-2.1511,-2.1523,-2.1517,-2.1504,-2.1503,-2.1503,-2.1502,0,-2.1282,-2.1281,-2.1336,-2.1351,-2.1355,-2.1394,-2.1406,-2.1437,-2.1438,-2.1481,-2.149,-2.1493,-2.153,-2.1528,-2.157,-2.1568,-2.1632,-2.1624,-2.1625,-2.1624,-2.1667,-2.1663,-2.1806,-2.1824,-2.1698,-2.1699,-2.17,0,-2.1344,-2.138,-2.1398,-2.1419,-2.143,-2.1464,-2.1484,-2.1477,-2.1499,-2.1523,-2.1551,-2.1586,-2.1613,-2.1673,-2.1679,-2.1711,-2.1704,-2.1752,-2.1709,-2.1711,-2.1705,-2.1703,-2.1706,-2.176,-2.1762,-2.1763,-2.1764,0,-2.1455,-2.1453,-2.1482,-2.1512,-2.1536,-2.1559,-2.158,-2.1599,-2.1593,-2.1619,-2.1656,-2.1677,-2.1719,-2.1754,-2.1785,-2.1795,-2.1779,-2.1777,-2.1789,-2.1793,-2.1792,-2.1793,-2.1649,-2.1774,-2.1773,-2.1772,-2.1772,-2.1771,-2.1536,-2.1567,-2.1584,-2.1618,-2.1633,-2.1653,-2.1683,-2.1688,-2.1718,-2.1752,-2.1746,-2.1787,-2.1806,-2.1845,-2.1859,-2.1891,-2.1874,-2.1891,-2.1895,-2.19,-2.1905,-2.1787,-2.1897,-2.1897,-2.1896,-2.1896,-2.1896,0,-2.1646,-2.1656,-2.1687,-2.1717,-2.1743,-2.1725,-2.1748,-2.1771,-2.1808,-2.1827,-2.1854,-2.1897,-2.1931,-2.194,-2.1972,-2.1997,-2.199,-2.2006,-2.2004,-2.2006,-2.1918,-2.1905,-2.201,-2.201,-2.201,-2.201,-2.201,-2.201,-2.1706,-2.1757,-2.1757,-2.1816,-2.1826,-2.1866,-2.1881,-2.1899,-2.1914,-2.1963,-2.199,-2.1996,-2.2011,-2.2044,-2.2075,-2.2077,-2.209,-2.2108,-2.2107,-2.2024,-2.2013,-2.2002,-2.1989,-2.2111,-2.2111,-2.2193,-2.2194,-2.2194]},{"header":{"parameterUnit":"m.s-1","parameterCategory":1,"la1":30.2991,"la2":30.254,"lo1":-89.0895,"lo2":-89.0444,"dy":0.0017,"dx":0.0017,"nx":28,"ny":28,"refTime":"2025-04-09T03:00:00:Z","depth":0,"parameterNumber":3,"parameterNumberName":"V-component_of_WINDS"},"data":[0,0,0,0,0,0,0,0,0,0,0,0,0,0,0,0,0,0,0,0,0,0,0,0,0,0,0,0,0,0,0,0,0,0,0,0,0,0,0,0,0,0,0,0,0,0,0,0,0,0,0,0,0,0,0,0,0,0,-1.0661,-1.0661,0,-1.0658,-1.0658,-1.0658,-1.0615,-1.0614,-1.0613,-1.0611,-1.061,-1.0611,-1.0611,0,0,0,0,0,0,0,0,0,0,0,0,0,-1.0628,-1.0629,-1.0661,-1.0661,-1.0661,-1.0658,-1.0658,-1.0658,-1.0615,-1.0614,-1.0612,-1.0611,-1.0609,-1.061,-1.0612,0,0,0,0,0,0,0,0,0,0,0,0,0,-1.0636,-1.0629,-1.0661,-1.0639,-1.0637,-1.0658,-1.0658,-1.0658,-1.0615,-1.0614,-1.0612,-1.061,-1.0609,-1.061,-1.0612,-1.0654,0,0,-1.0616,-1.0617,0,0,0,0,0,0,0,0,-1.0635,-1.0637,-1.0642,-1.064,-1.0638,-1.0635,-1.0646,-1.0657,-1.0616,-1.0624,-1.0611,-1.061,-1.0619,-1.062,-1.0623,-1.0654,-1.0654,-1.0616,-1.0617,-1.0618,-1.0618,0,0,0,0,0,0,0,-1.0635,-1.0637,-1.066,-1.0642,-1.064,-1.0629,-1.0628,-1.0648,-1.0631,-1.0623,-1.062,-1.062,-1.0618,-1.0622,-1.0623,-1.0654,-1.0616,-1.0618,-1.0619,-1.0619,-1.072,-1.0721,0,0,0,0,0,0,-1.0637,-1.0637,-1.066,-1.066,-1.0633,-1.0631,-1.063,-1.0638,-1.0631,-1.0628,-1.0621,-1.0618,-1.062,-1.0621,-1.0623,-1.0672,-1.0618,-1.0619,-1.062,-1.0718,-1.072,-1.0722,0,0,0,0,0,0,-1.0637,-1.064,-1.066,-1.0647,-1.0649,-1.0633,-1.0642,-1.0639,-1.0642,-1.0629,-1.0626,-1.0628,-1.0619,-1.062,-1.0647,-1.0671,-1.062,-1.0621,-1.0716,-1.0719,-1.0721,-1.0771,0,0,0,0,0,0,-1.0636,-1.064,-1.0656,-1.0648,-1.065,-1.0684,-1.0644,-1.064,-1.0645,-1.064,-1.0635,-1.0633,-1.0618,-1.0645,-1.0648,-1.0672,-1.0622,-1.0713,-1.0717,-1.072,-1.0767,-1.0775,-1.0782,0,0,0,0,0,-1.0635,-1.067,-1.0657,-1.066,-1.067,-1.0686,-1.0687,-1.0669,-1.0647,-1.0663,-1.0655,-1.0633,-1.0668,-1.0648,-1.0651,-1.0676,-1.0712,-1.0716,-1.072,-1.0764,-1.0774,-1.0782,0,0,0,0,0,0,-1.0682,-1.0669,-1.0654,-1.0688,-1.0688,-1.0678,-1.0698,-1.068,-1.0686,-1.0682,-1.0659,-1.0658,-1.0688,-1.0685,-1.0662,-1.0717,-1.0686,-1.0691,-1.0718,-1.0727,-1.0735,-1.0735,-1.0624,0,0,0,0,0,-1.0696,-1.071,-1.0698,-1.0729,-1.073,-1.0714,-1.0721,-1.0706,-1.0706,-1.0706,-1.0699,-1.07,-1.0711,-1.0719,-1.0728,-1.0766,-1.0764,-1.0785,-1.0793,-1.0799,-1.0803,-1.0823,-1.0832,-1.0735,-1.0735,-1.0735,0,0,-1.0726,-1.0721,-1.0731,-1.0739,-1.0737,-1.0752,-1.0715,-1.0732,-1.0743,-1.0709,-1.0733,-1.0728,-1.0727,-1.076,-1.0773,-1.0758,-1.083,-1.0804,-1.0809,-1.081,-1.0828,-1.0837,-1.0846,-1.0738,-1.0737,-1.0737,0,0,-1.0788,-1.0785,-1.0811,-1.081,-1.0808,-1.0797,-1.0803,-1.0796,-1.0792,-1.0816,-1.079,-1.0803,-1.0822,-1.0822,-1.0825,-1.0887,-1.0867,-1.089,-1.0929,-1.0949,-1.0956,-1.0963,-1.0985,-1.0993,-1.0895,-1.0895,-1.0895,0,-1.0825,-1.0847,-1.0826,-1.0846,-1.085,-1.0818,-1.0844,-1.0844,-1.0846,-1.085,-1.0832,-1.0855,-1.0852,-1.0884,-1.0899,-1.0902,-1.0909,-1.0891,-1.0957,-1.0963,-1.0969,-1.099,-1.0999,-1.0898,-1.0898,-1.0897,-1.0897,0,-1.0893,-1.0908,-1.0929,-1.0931,-1.0937,-1.096,-1.0943,-1.0951,-1.0937,-1.0928,-1.0952,-1.0947,-1.0955,-1.0962,-1.0948,-1.0992,-1.0982,-1.0961,-1.0929,-1.0982,-1.1001,-1.1009,-1.0902,-1.0901,-1.09,-1.0899,0,0,-1.0986,-1.0975,-1.0983,-1.0984,-1.0979,-1.0991,-1.1011,-1.1019,-1.1027,-1.1029,-1.1046,-1.1063,-1.1043,-1.1046,-1.1032,-1.1049,-1.1098,-1.1025,-1.1025,-1.1039,-1.1146,-1.1163,-1.1172,-1.1084,-1.1086,-1.1087,-1.1147,0,-1.1046,-1.1081,-1.1062,-1.11,-1.1114,-1.1084,-1.1102,-1.1101,-1.1093,-1.1104,-1.1095,-1.1107,-1.108,-1.1082,-1.1097,-1.1089,-1.1119,-1.1084,-1.11,-1.1101,-1.1102,-1.1182,-1.12,-1.1256,-1.1154,-1.1155,-1.1156,0,-1.1121,-1.1125,-1.1164,-1.1157,-1.1162,-1.1179,-1.1184,-1.1194,-1.1192,-1.1185,-1.1189,-1.117,-1.119,-1.1158,-1.1185,-1.1162,-1.1167,-1.1164,-1.1166,-1.1167,-1.1132,-1.1186,-1.1274,-1.1283,-1.1168,-1.1167,-1.1166,0,-1.1185,-1.1201,-1.1226,-1.1227,-1.1219,-1.1231,-1.1228,-1.1225,-1.1231,-1.1235,-1.1238,-1.1245,-1.1249,-1.1255,-1.1238,-1.1217,-1.1268,-1.1235,-1.1263,-1.1264,-1.1276,-1.1275,-1.1366,-1.1278,-1.1278,-1.1278,-1.1278,0,-1.1254,-1.1279,-1.1254,-1.127,-1.1297,-1.1276,-1.1303,-1.1297,-1.1294,-1.1308,-1.1282,-1.1296,-1.1273,-1.1285,-1.1272,-1.1297,-1.1298,-1.1293,-1.129,-1.1296,-1.1297,-1.13,-1.1296,-1.128,-1.128,-1.1279,-1.1279,0,-1.1331,-1.1315,-1.1341,-1.133,-1.1328,-1.1349,-1.134,-1.1354,-1.1344,-1.1362,-1.1365,-1.1349,-1.1361,-1.1345,-1.1356,-1.1347,-1.1381,-1.1371,-1.1381,-1.1379,-1.1408,-1.1406,-1.1504,-1.1516,-1.1421,-1.1422,-1.1422,0,-1.1376,-1.1395,-1.1386,-1.1394,-1.1392,-1.1404,-1.141,-1.1389,-1.1395,-1.1395,-1.1409,-1.1419,-1.1426,-1.1446,-1.1436,-1.1444,-1.1434,-1.1468,-1.1435,-1.1441,-1.1435,-1.1435,-1.1437,-1.1475,-1.1476,-1.1477,-1.1478,0,-1.1459,-1.145,-1.1459,-1.1465,-1.1472,-1.1475,-1.1477,-1.1485,-1.1463,-1.1472,-1.1483,-1.1489,-1.1499,-1.1509,-1.1514,-1.1511,-1.1492,-1.1488,-1.1495,-1.1502,-1.1508,-1.1506,-1.14,-1.1486,-1.1486,-1.1485,-1.1484,-1.1484,-1.1521,-1.1536,-1.1533,-1.1543,-1.1542,-1.1544,-1.1557,-1.1548,-1.1558,-1.1564,-1.1551,-1.1567,-1.1564,-1.1569,-1.1568,-1.158,-1.1565,-1.1575,-1.1578,-1.1581,-1.1585,-1.1505,-1.158,-1.158,-1.158,-1.158,-1.1579,0,-1.1603,-1.1599,-1.1609,-1.1612,-1.162,-1.16,-1.1601,-1.1609,-1.1622,-1.1622,-1.1629,-1.1642,-1.1652,-1.1642,-1.165,-1.1661,-1.1652,-1.1664,-1.1663,-1.1663,-1.1598,-1.1591,-1.1671,-1.1671,-1.1671,-1.1671,-1.1671,-1.1671,-1.1647,-1.1671,-1.1662,-1.1685,-1.1681,-1.1695,-1.1698,-1.17,-1.1699,-1.1715,-1.1723,-1.1716,-1.1711,-1.1719,-1.1726,-1.1723,-1.1728,-1.1743,-1.1737,-1.1676,-1.1667,-1.1659,-1.1652,-1.1744,-1.1744,-1.1801,-1.1801,-1.1802]}]]